Home > Weather > Qadian > Past weeks

Flag for India Past Weather in Qadian, Punjab, India — Yesterday and Last 2 Weeks

Now
100 °F

Scattered clouds.


Feels Like: 120 °F
Forecast: 95 / 120 °F
Wind: 2 mph from North

Location: Amritsar Airport

Current Time: Jun 30, 2016 at 2:15:07 PM

Latest Report: Jun 30, 2016 at 1:30 PM


Visibility: 2 mi

Pressure: 29.53 "Hg

Humidity: 50%

Dew Point: 79 °F

Location of QadianLocation

Past Weather in Qadian — Graph

°F

Qadian Temperature Yesterday

Maximum temperature yesterday: 100 °F (at 3:00 PM)
Minimum temperature yesterday: 84 °F (at 3:30 AM)
Average temperature yesterday: 94 °F

High & Low Weather Summary for the Past Weeks

 TemperatureHumidityPressure
High102 °F (Jun 25, 2:00 PM)100% (Jun 17, 8:30 AM)29.68 "Hg (Jun 17, 8:30 AM)
Low73 °F (Jun 22, 10:30 AM)39% (Jun 24, 6:00 PM)29.33 "Hg (Jun 15, 5:00 PM)
Average90 °F69%29.55 "Hg
* Reported Jun 15 11:30 AM — Jun 30 12:00 PM, Qadian, Weather by CustomWeather, © 2016

Note: Actual official high and low records may vary slightly from our data, if they occured in-between our weather recording intervals... More about our weather records

Advertising

Qadian Weather History for the Previous 24 Hours

Scroll right to see more
 ConditionsComfort  
Time TempWeatherWind HumidityBarometerVisibility
12:00 PM
Thu, Jun 30
99 °FBroken clouds.2 mph50%29.56 "Hg1 mi
11:30 AM97 °FBroken clouds.3 mph53%29.56 "Hg1 mi
11:00 AM99 °FBroken clouds.2 mph53%29.56 "Hg1 mi
10:30 AM97 °FScattered clouds.No wind56%29.56 "Hg1 mi
10:00 AM97 °FHaze.No wind60%29.56 "Hg1 mi
9:30 AM95 °FHaze.2 mph60%29.59 "Hg1 mi
9:00 AM95 °FHaze.No wind60%29.59 "Hg1 mi
8:30 AM93 °FHaze.No wind67%29.56 "Hg1 mi
8:00 AM91 °FFog.No wind75%29.59 "Hg1 mi
7:30 AM90 °FFog.2 mph79%29.56 "Hg1 mi
7:00 AM88 °FFog.2 mph84%29.56 "Hg1 mi
6:30 AM88 °FFog.No wind79%29.56 "Hg1 mi
5:00 AM88 °FFog.No wind79%29.56 "Hg1 mi
4:30 AM88 °FFog.No wind79%29.56 "Hg1 mi
3:30 AM88 °FFog.No wind79%29.56 "Hg1 mi
3:00 AM88 °FHaze.No wind79%29.56 "Hg1 mi
2:30 AM88 °FHaze.No wind79%29.56 "Hg2 mi
2:00 AM88 °FHaze.No wind79%29.56 "Hg2 mi
1:30 AM90 °FHaze.No wind71%29.56 "Hg2 mi
1:00 AM90 °FHaze.No wind75%29.56 "Hg2 mi
12:30 AM90 °FHaze.No wind75%29.56 "Hg2 mi
12:00 AM90 °FHaze.No wind75%29.56 "Hg2 mi
11:30 PM
Wed, Jun 29
91 °FHaze.No wind67%29.56 "Hg2 mi
10:30 PM91 °FHaze.No wind67%29.56 "Hg2 mi
10:00 PM91 °FPassing clouds.No wind67%29.56 "Hg2 mi
9:30 PM93 °FPassing clouds.No wind59%29.56 "Hg2 mi
9:00 PM93 °FPassing clouds.No wind63%29.56 "Hg2 mi
8:30 PM93 °FPassing clouds.No wind59%29.56 "Hg2 mi
7:30 PM97 °FScattered clouds.No wind47%29.53 "Hg2 mi
7:00 PM97 °FScattered clouds.No wind47%29.53 "Hg2 mi
6:30 PM99 °FScattered clouds.No wind44%29.53 "Hg2 mi
6:00 PM99 °FScattered clouds.1 mph47%29.53 "Hg2 mi
5:30 PM100 °FScattered clouds.2 mph42%29.53 "Hg2 mi
5:00 PM100 °FBroken clouds.3 mph45%29.56 "Hg2 mi
4:30 PM100 °FScattered clouds.2 mph42%29.56 "Hg2 mi
4:00 PM99 °FBroken clouds.3 mph47%29.56 "Hg2 mi
3:30 PM99 °FBroken clouds.2 mph44%29.59 "Hg2 mi
3:00 PM100 °FBroken clouds.2 mph42%29.59 "Hg2 mi
2:30 PM99 °FBroken clouds.1 mph44%29.62 "Hg2 mi
2:00 PM99 °FBroken clouds.5 mph47%29.62 "Hg2 mi
Weather by CustomWeather, © 2016

See weather overviewHow to use our weather pages